Regional Weather Roundup
Issued by NWS

Home | Current Version | Previous Version | Graphics & Text | Print | Product List | Glossary On
Versions: 1 2 3 4 5 6 7 8 9 10 11 12 13 14 15 16 17 18 19 20 21 22 23 24 25 26 27 28 29 30 31 32 33 34 35 36 37 38 39 40 41 42 43 44 45 46 47 48 49 50
000
ASUS43 KIND 292109
RWRIN

WEATHER ROUNDUP FOR INDIANA
NATIONAL WEATHER SERVICE INDIANAPOLIS IN
500 PM EDT THU SEP 29 2016

NOTE: "FAIR" INDICATES FEW OR NO CLOUDS BELOW 12,000 FEET WITH NO
SIGNIFICANT WEATHER AND/OR OBSTRUCTIONS TO VISIBILITY.

* - STATION DOES NOT REPORT WEATHER SUCH AS PRECIPITATION OR FOG.

+ - STATION NOT QUALITY CONTROLLED BY THE NATIONAL WEATHER SERVICE.
    USE DATA WITH CAUTION...ESPECIALLY DEWPOINT AND RELATIVE
    HUMIDITY OBSERVATIONS.

INZ001>003-010>013-019-020-292200-
NORTHWEST INDIANA

CITY           SKY/WX    TMP DP  RH WIND       PRES   REMARKS
GARY /AIRPORT/ PTSUNNY   68  61  77 NE16G32   30.16S
KNOX *+        MOSUNNY   68  37  32 E15       30.12S
LA PORTE +     MOSUNNY   71  56  61 NE17G24   30.14R
MICHIGAN CITY+ CLOUDY    64  59  82 CALM      30.15R
MONTICELLO +   PTSUNNY   72  47  40 NE7       30.09S
RENSSELAER +   LGT RAIN  64  59  82 N15G25    30.12R
VALPARAISO     LGT RAIN  65  60  84 N9G18     30.13S

$$

LMZ046-743>745-292200-
SOUTHERN LAKE MICHIGAN

STATION/POSITION TIME  TEMP    WIND        PRES    WAVE
                       AIR SEA DIR/SP/G            HT
                 (UTC) (F)     (DEG/KT/KT) (MB)    (FT)
BURNS HARBOR     2040   64      30/ 23/ 26 1020.7F
MICHIGAN CITY    2040   63      10/ 23/ 26   N/A
5NW MICH CITY    2100   64 65   30/ 21/ 27   N/A     8

$$

INZ004-005-014>016-021>024-292200-
NORTH CENTRAL INDIANA

CITY           SKY/WX    TMP DP  RH WIND       PRES   REMARKS
ELKHART        PTSUNNY  N/A N/A N/A NE12      30.14R
GOSHEN         MOSUNNY   69  52  54 E14       30.13S
LOGANSPORT +   SUNNY     70  50  49 NE7       30.11R
PERU/GRISSOM   PTSUNNY   68  51  53 NE10      30.09R
ROCHESTER +    SUNNY     72  54  53 E10G17    30.11S
SOUTH BEND     MOSUNNY   66  56  70 NE16G28   30.15R
WARSAW +       SUNNY     68  45  42 E13G18    30.12S

$$

INZ006>009-017-018-025>027-292200-
NORTHEAST INDIANA

CITY           SKY/WX    TMP DP  RH WIND       PRES   REMARKS
ANGOLA *+        N/A     66  57  72 NE10      30.14S
AUBURN +       CLOUDY    66  54  63 NE9       30.13R
FORT WAYNE     PTSUNNY   67  53  61 NE12      30.12R
HUNTINGTON +   PTSUNNY   67  51  56 E8        30.11R
KENDALLVILLE + PTSUNNY   67  53  61 E12       30.14R

$$

INZ028-029-035-036-043>045-051>053-292200-
WEST CENTRAL INDIANA

CITY           SKY/WX    TMP DP  RH WIND       PRES   REMARKS
CRAWFORDSVL +  MOSUNNY   68  50  52 NE7       30.09S
GREENCASTLE +  PTSUNNY   63  54  72 NE3       30.09S
LAFAYETTE      MOSUNNY   68  54  60 NE10      30.09S
TERRE HAUTE    PTSUNNY   66  51  58 N5        30.09S

$$

INZ030>032-037>040-046>048-054>057-064-065-292200-
CENTRAL INDIANA

CITY           SKY/WX    TMP DP  RH WIND       PRES   REMARKS
COLUMBUS       MOSUNNY   66  52  59 SE3       30.07S
FISHERS *+     PTSUNNY   66  54  63 CALM      30.09
FRANKFORT +    CLOUDY    70  51  50 E8        30.11S
GREENWOOD *+   PTSUNNY   66  52  59 NE9       30.09R
INDIANAPOLIS   CLOUDY    68  50  52 NE7       30.08S
-EAGLE CREEK   MOSUNNY   68  50  52 VRB6      30.08S
KOKOMO *+      PTSUNNY   69  52  54 NE12      30.11S
MARION +       MOSUNNY   68  50  51 NE7       30.11S
MT COMFORT *+  MOSUNNY   68  50  52 NE7       30.09S
SHELBYVILLE    CLOUDY    69  49  48 NE6       30.07R
ZIONSVILLE +   MOSUNNY   67  50  54 NE6       30.10R

$$

INZ033-034-041-042-049-050-058-059-292200-
EAST CENTRAL INDIANA

CITY           SKY/WX    TMP DP  RH WIND       PRES   REMARKS
MUNCIE         PTSUNNY   70  51  51 NE8       30.08S

$$

INZ060-061-067>069-081>083-085>088-292200-
SOUTHWEST INDIANA

CITY           SKY/WX    TMP DP  RH WIND       PRES   REMARKS
EVANSVILLE     PTSUNNY   66  52  60 W5        30.09S
HUNTINGBURG *+   N/A     64  52  63 NW3       30.08S
WASHINGTON +   CLOUDY    66  53  63 MISG      30.08R

$$

INZ062-063-066-070>080-084-089>092-292200-
SOUTH CENTRAL AND SOUTHEAST INDIANA

CITY           SKY/WX    TMP DP  RH WIND       PRES   REMARKS
BLOOMINGTON    MOSUNNY   64  50  60 N6        30.07F
MADISON *+     MOSUNNY   63  50  63 CALM      30.08F
NORTH VERNON + CLOUDY    64  55  72 NE6       30.08S
SEYMOUR +      CLOUDY    66  50  55 E3        30.06F

$$




USA.gov is the U.S. government's official web portal to all federal, state and local government web resources and services.